Location: Lugrin
(46.4033°N, 6.6674°E)
Time: 15:28:06
(UTC+00:00)

N. Korean satellite - Pass Details

Date: 30 November 2020
Orbit: 453 x 502 km, 97.2° (Epoch: 15 January)

Event Time Altitude Azimuth Distance (km) Brightness Sun altitude
Rises 16:45:35 0° 190° (S) 2,455 10.6 -9.6°
Reaches altitude 10° 16:47:46 10° 201° (SSW) 1,591 9.8 -10.0°
Maximum altitude 16:50:47 29° 264° (W) 869 8.7 -10.4°
Drops below altitude 10° 16:53:52 10° 326° (NNW) 1,619 9.4 -10.9°
Sets 16:56:07 0° 338° (NNW) 2,508 10.2 -11.3°
